Tracking 28926 objects as of 23-May-2024
HD Live streaming from Space Station
objects crossing your sky now

STARLINK-5089

Track STARLINK-5089 now!
10-day predictions
STARLINK-5089 is classified as:


NORAD ID: 56148
Int'l Code: 2023-046BJ
Perigee: 565.2 km
Apogee: 567.1 km
Inclination: 43.0 °
Period: 95.8 minutes
Semi major axis: 6937 km
RCS: Unknown
Launch date: March 29, 2023
Source: United States (US)
Launch site: AIR FORCE EASTERN TEST RANGE (AFETR)
Your satellite tracking list
Your tracking list is empty




NASA's NSSDC Master Catalog

Two Line Element Set (TLE):
1 56148U 23046BJ  24144.18301312  .00002490  00000-0  19927-3 0  9999
2 56148  43.0035  69.0016 0001371 273.1896  86.8789 15.02547082 64056
Source of the keplerian elements: AFSPC